Wind_Speed
11 10 10 10 9 10 12 13 14 14 15 16 17 18 19 19 19 18 17 17 15 14 14 14 14 15 17 20 23 25 22 21 19 15 8 6 7 9 13 12 10 9 6 8 7
13 11 12 13 12 12 13 13 13 14 15 16 17 18 19 19 19 18 18 18 16 15 15 15 16 17 18 20 23 25 25 23 18 13 7 6 7 9 12 12 10 9 9 6 6
15 13 13 13 15 14 13 13 13 14 15 17 17 18 18 19 19 19 19 19 18 16 16 16 16 17 18 19 21 24 24 20 22 16 12 9 9 10 13 12 9 8 9 7 5
15 16 15 14 14 14 14 14 14 15 16 17 17 18 19 19 16 20 20 20 19 17 17 18 18 17 18 20 20 22 21 21 19 13 10 10 11 11 13 12 10 9 9 7 6
17 17 17 17 17 17 16 16 17 17 17 18 18 19 20 21 20 17 22 21 20 19 18 18 19 19 19 20 19 19 17 19 17 14 12 11 12 14 13 12 11 10 9 8 7
20 19 19 19 19 19 18 18 18 19 19 19 20 20 19 20 23 15 21 21 21 20 20 20 20 20 20 19 20 19 19 17 18 18 15 14 13 15 15 13 13 11 11 9 8
21 21 21 19 19 19 19 19 19 19 21 22 21 21 21 21 21 23 15 22 21 21 21 21 20 20 18 19 20 18 20 20 19 17 17 15 17 15 15 15 15 13 12 11 10
21 20 21 22 20 19 20 20 20 21 21 23 24 24 23 23 23 23 22 17 23 22 22 22 21 21 19 20 19 21 19 19 23 21 19 18 17 17 17 17 15 15 15 13 12
22 21 22 22 21 21 21 22 22 22 22 22 23 25 25 25 25 23 24 23 21 22 23 23 24 24 23 21 19 22 16 24 21 21 21 21 19 19 19 19 19 17 16 16 15
22 22 22 22 23 23 23 24 23 23 23 23 24 22 21 27 27 27 26 25 25 24 24 26 27 27 27 26 22 22 26 22 24 21 22 24 23 18 20 19 20 19 19 17 17
24 23 24 24 23 24 25 25 24 24 27 27 19 29 18 25 30 29 29 27 27 28 29 30 31 34 29 27 27 19 21 20 23 23 21 24 24 22 21 21 21 20 20 18 17
26 25 26 25 24 24 26 27 27 27 23 26 29 26 27 21 27 29 30 30 29 30 30 30 34 28 27 26 27 25 20 21 20 21 22 24 28 26 28 26 24 21 21 20 20
27 27 26 27 27 26 25 26 26 25 24 25 30 30 27 26 25 27 28 31 30 30 31 32 26 31 31 29 29 27 24 21 20 19 23 25 33 31 29 31 29 28 25 25 24
28 28 27 29 29 26 26 26 25 23 17 21 30 31 32 31 29 28 28 29 31 29 30 27 33 25 31 31 29 30 27 20 19 20 13 19 12 30 33 34 33 29 29 28 26
30 30 29 29 28 26 25 25 24 21 2 15 27 32 36 37 31 32 30 30 32 31 32 26 27 35 30 33 30 29 26 25 21 22 21 23 11 32 34 32 34 32 31 29 28
32 31 31 32 29 28 28 27 25 17 10 13 19 29 36 38 39 30 35 33 33 31 32 34 24 25 34 28 29 26 22 19 19 18 11 30 24 26 35 35 30 27 28 28 28
32 32 32 31 27 30 29 31 21 14 13 19 21 25 34 37 39 38 36 40 36 30 35 34 33 28 26 31 28 29 22 4 3 3 8 12 18 41 26 30 30 27 29 28 27
31 32 33 31 32 31 33 36 19 15 23 15 26 25 27 34 38 38 36 41 44 37 27 32 17 35 31 32 32 31 31 13 9 5 4 13 18 24 10 22 21 20 21 23 27
32 34 37 33 34 34 37 45 27 17 31 27 21 25 28 31 26 38 39 43 45 47 26 27 23 24 34 33 30 32 33 33 6 2 1 10 19 32 26 23 28 29 29 26 26
37 38 39 35 37 38 43 46 33 26 16 36 32 22 26 32 32 25 34 32 47 45 43 19 10 25 32 32 34 29 33 18 18 3 4 7 12 14 4 10 20 21 20 22 25
41 41 46 38 38 45 52 54 44 29 26 23 35 30 20 25 34 34 18 26 22 41 42 37 23 13 30 35 40 37 31 22 17 18 6 1 10 20 21 18 18 21 23 24 25
53 49 50 41 50 55 61 50 43 40 34 30 29 35 31 29 23 32 28 24 25 22 43 46 25 20 26 26 39 41 41 41 22 12 18 12 22 8 4 10 17 20 23 25 26
56 53 46 50 59 59 57 60 40 46 38 36 32 30 32 33 24 29 30 27 23 25 26 46 25 12 8 22 30 41 44 42 42 26 31 12 19 20 26 14 14 18 19 18 20
60 53 50 55 59 59 59 51 57 46 47 40 35 30 31 30 31 16 29 28 30 25 28 27 32 34 27 15 28 41 44 47 44 31 37 44 35 13 17 20 21 22 21 26 25
67 43 64 66 65 64 60 60 54 56 51 47 45 37 33 28 30 32 23 27 27 30 32 29 26 38 33 24 24 23 33 43 51 52 30 43 43 39 23 20 19 19 22 21 20
67 51 58 57 64 60 57 60 56 54 49 57 51 48 36 29 29 31 31 28 27 30 30 37 18 27 35 37 25 25 27 27 40 48 55 44 35 19 26 22 21 19 20 19 19
71 69 44 59 47 59 63 66 62 49 53 48 48 41 34 36 30 27 24 22 21 23 31 35 33 13 11 27 28 24 41 36 38 39 41 52 49 44 30 31 30 27 24 26 28
Wind_Direction
219 223 226 219 226 230 223 216 216 209 201 199 197 197 195 195 193 192 189 191 190 192 192 190 188 185 185 188 193 196 195 200 207 212 222 263 246 203 200 204 197 190 170 184 190
209 218 221 213 215 217 220 221 216 215 211 204 205 204 200 197 193 194 193 195 195 194 196 195 190 185 192 193 196 198 206 206 213 228 239 268 248 212 205 203 197 193 207 203 190
208 211 213 225 212 213 215 216 215 215 216 215 209 207 207 201 198 197 197 197 198 199 196 198 196 192 192 198 201 207 212 213 226 239 256 255 242 222 204 205 200 195 207 212 204
226 214 212 217 224 219 212 213 217 214 214 218 218 210 208 206 204 205 201 200 201 203 202 203 196 198 199 203 209 211 216 220 230 235 240 258 243 235 218 205 210 206 210 215 208
246 229 218 210 215 219 216 213 210 215 216 214 217 219 208 208 208 205 206 204 204 205 207 207 206 201 203 208 212 217 222 225 229 231 246 256 250 239 218 213 212 214 216 219 214
246 242 225 216 216 216 218 219 216 213 212 216 215 217 218 214 210 210 210 209 207 207 209 209 210 210 209 213 212 217 220 224 231 239 247 251 241 231 220 214 213 215 221 221 219
250 247 243 232 220 220 219 222 220 218 217 212 216 217 216 217 217 213 210 212 212 210 208 211 213 212 216 214 216 214 216 224 229 234 241 246 238 225 225 217 216 214 221 225 225
249 252 249 243 234 225 222 223 224 223 221 217 214 215 220 218 217 217 214 214 213 212 211 210 210 212 218 218 216 216 217 217 225 230 235 235 238 226 225 219 218 218 220 223 226
240 242 250 251 243 231 224 223 223 225 225 225 224 218 216 216 220 217 215 216 221 215 212 214 212 214 215 213 212 213 220 222 226 226 230 230 236 231 227 224 222 222 222 223 225
239 239 241 246 250 244 227 225 224 224 224 225 228 225 223 216 218 219 217 215 216 218 215 214 214 217 217 213 211 216 220 225 226 230 231 235 234 234 229 228 230 228 227 225 226
238 235 233 239 238 245 243 229 224 226 225 223 223 226 227 222 219 216 216 216 216 214 214 217 218 219 224 226 225 230 233 236 236 233 234 240 241 237 236 230 231 232 234 231 228
236 233 234 231 232 234 239 240 234 233 228 228 227 227 230 227 222 221 216 216 215 218 217 218 225 228 226 224 228 232 236 232 235 233 237 242 243 235 237 235 234 234 232 232 229
235 235 232 232 227 227 234 238 240 238 235 234 232 226 224 226 225 224 221 219 218 221 221 224 227 225 225 225 223 228 234 235 233 235 240 247 251 240 237 239 235 234 235 233 233
237 233 228 231 231 224 223 229 231 235 241 244 235 234 227 226 226 221 221 221 220 219 221 228 228 230 228 228 226 229 231 233 236 242 240 240 264 251 241 240 240 235 237 238 239
241 236 229 228 229 227 220 216 218 220 270 235 223 218 221 221 224 220 219 220 221 219 214 216 223 225 227 227 224 228 229 230 233 237 247 243 245 258 248 239 239 241 241 243 243
240 237 231 226 223 217 216 209 203 199 235 213 210 212 211 215 219 218 215 214 216 217 223 224 224 224 227 227 223 226 225 222 228 239 258 246 236 258 249 250 248 246 245 245 243
238 238 237 229 219 216 207 201 192 220 207 215 210 212 214 212 210 213 212 211 207 205 214 219 222 224 222 220 218 216 204 151 247 206 237 215 225 242 250 253 255 253 247 242 238
236 237 233 227 218 212 203 193 211 234 204 193 200 204 210 213 214 213 212 213 214 213 212 208 214 219 220 218 219 208 203 194 196 198 237 193 232 251 251 232 234 226 233 239 241
235 230 231 223 216 210 200 195 220 215 212 208 188 199 205 208 212 217 218 220 220 215 207 206 216 220 220 218 212 209 207 221 230 252 286 221 250 257 249 245 252 251 248 244 235
224 227 230 219 211 204 203 210 215 213 213 212 220 212 214 212 209 207 214 231 227 222 219 218 213 212 211 211 211 211 209 202 213 166 252 245 251 232 219 240 242 244 245 235 239
214 217 227 215 212 201 209 218 214 215 211 212 220 222 218 215 218 213 217 220 217 224 221 219 218 209 205 208 211 208 206 205 207 226 188 223 259 263 251 244 229 232 234 231 232
214 213 223 212 201 208 215 219 218 213 214 212 216 221 225 222 216 217 224 220 220 222 212 215 219 220 212 214 215 217 217 213 204 204 223 245 247 250 228 217 218 223 229 233 238
211 210 218 209 204 215 219 221 216 215 212 214 212 219 223 227 221 227 228 221 222 215 208 212 213 193 215 227 219 217 218 218 219 229 232 204 252 253 241 233 216 223 232 238 243
204 204 204 202 216 221 220 222 218 215 218 215 215 218 223 222 223 228 224 224 218 204 203 213 214 212 217 228 222 221 223 222 222 225 233 236 238 238 229 228 233 235 236 253 252
202 205 203 196 209 217 223 227 222 220 219 218 222 224 224 217 221 223 222 217 215 215 206 205 220 222 227 233 237 236 240 228 223 226 223 248 247 243 244 246 239 235 232 218 199
202 207 203 212 214 211 215 223 226 223 220 220 221 224 224 224 228 230 227 225 219 216 212 209 221 224 230 234 238 238 235 233 237 235 235 237 246 244 227 221 212 211 207 194 195
210 212 213 214 215 213 216 222 226 225 225 226 231 222 224 223 226 228 214 211 215 216 217 214 217 212 225 228 231 249 233 229 233 234 235 238 245 242 231 227 234 237 229 245 246
Height
3100 3101 3103 3105 3108 3110 3113 3114 3116 3118 3119 3121 3123 3126 3127 3129 3133 3136 3139 3142 3143 3146 3148 3149 3151 3153 3156 3158 3160 3163 3165 3166 3167 3169 3171 3171 3171 3173 3175 3177 3179 3181 3182 3183 3184
3096 3100 3102 3103 3105 3108 3110 3113 3115 3117 3119 3120 3122 3125 3127 3129 3131 3134 3137 3139 3142 3144 3146 3148 3150 3152 3155 3157 3159 3161 3163 3165 3166 3168 3169 3170 3170 3172 3174 3176 3178 3180 3181 3183 3183
3094 3097 3099 3102 3103 3104 3107 3109 3112 3114 3117 3119 3121 3124 3126 3128 3131 3132 3134 3138 3140 3143 3144 3147 3149 3151 3153 3156 3158 3159 3161 3164 3165 3167 3168 3168 3169 3170 3171 3173 3177 3179 3180 3181 3182
3092 3093 3095 3098 3101 3103 3104 3106 3109 3111 3114 3117 3119 3123 3125 3127 3131 3130 3132 3135 3138 3141 3143 3145 3147 3150 3151 3154 3156 3158 3160 3162 3164 3165 3166 3167 3167 3168 3170 3173 3175 3177 3178 3180 3181
3092 3092 3092 3095 3097 3100 3102 3104 3106 3109 3112 3114 3116 3119 3123 3126 3128 3128 3131 3133 3136 3138 3140 3143 3145 3147 3150 3152 3154 3156 3158 3160 3162 3163 3164 3165 3166 3166 3168 3171 3173 3175 3177 3178 3179
3089 3091 3091 3090 3092 3096 3098 3101 3104 3106 3108 3111 3114 3116 3120 3123 3125 3127 3129 3132 3134 3136 3138 3141 3143 3146 3148 3150 3152 3153 3156 3158 3159 3161 3162 3163 3164 3164 3166 3169 3171 3173 3174 3176 3177
3087 3088 3090 3090 3090 3092 3094 3098 3100 3103 3106 3107 3111 3113 3116 3120 3122 3125 3127 3130 3132 3134 3135 3138 3141 3144 3146 3148 3149 3150 3153 3155 3156 3158 3159 3160 3161 3162 3164 3166 3168 3170 3171 3173 3175
3082 3086 3087 3088 3089 3090 3091 3093 3096 3099 3102 3104 3106 3109 3112 3115 3118 3122 3125 3127 3129 3131 3133 3135 3137 3140 3142 3144 3146 3148 3150 3151 3152 3154 3155 3158 3158 3159 3161 3163 3165 3167 3169 3171 3173
3076 3079 3083 3085 3086 3088 3089 3090 3092 3095 3098 3101 3104 3105 3107 3110 3114 3117 3120 3124 3126 3128 3131 3133 3135 3137 3139 3141 3144 3145 3145 3147 3149 3150 3152 3154 3154 3156 3158 3160 3162 3164 3166 3168 3170
3071 3074 3076 3079 3084 3085 3085 3086 3088 3090 3093 3096 3100 3105 3104 3106 3109 3112 3115 3118 3121 3124 3127 3129 3131 3132 3135 3137 3137 3140 3142 3144 3145 3148 3148 3149 3151 3152 3154 3156 3159 3160 3162 3165 3167
3065 3068 3069 3073 3076 3081 3085 3084 3087 3088 3087 3089 3093 3096 3098 3101 3103 3106 3110 3113 3116 3118 3120 3123 3126 3124 3131 3135 3136 3138 3140 3141 3143 3144 3144 3145 3146 3149 3150 3152 3154 3156 3159 3161 3164
3059 3061 3064 3066 3070 3073 3077 3080 3081 3082 3084 3084 3087 3090 3094 3096 3099 3102 3105 3109 3110 3113 3116 3120 3118 3126 3129 3131 3134 3135 3136 3137 3139 3140 3141 3140 3140 3143 3144 3147 3150 3152 3154 3157 3159
3052 3055 3058 3060 3062 3067 3071 3075 3077 3078 3079 3080 3081 3083 3087 3092 3094 3097 3101 3102 3105 3108 3111 3114 3117 3120 3123 3126 3128 3131 3133 3136 3137 3138 3137 3137 3133 3136 3139 3140 3144 3146 3149 3151 3153
3045 3047 3050 3053 3059 3060 3064 3067 3071 3076 3076 3073 3073 3076 3081 3083 3086 3090 3093 3100 3101 3104 3108 3111 3112 3116 3119 3121 3125 3126 3129 3133 3134 3136 3135 3135 3127 3127 3132 3134 3135 3141 3143 3146 3148
3038 3040 3043 3046 3051 3057 3060 3061 3065 3072 3071 3064 3062 3063 3069 3075 3078 3082 3086 3090 3093 3097 3102 3102 3105 3108 3112 3114 3120 3121 3125 3129 3131 3131 3131 3129 3131 3116 3124 3125 3129 3134 3136 3139 3142
3030 3033 3035 3038 3045 3048 3053 3057 3061 3067 3053 3051 3051 3054 3059 3062 3069 3074 3079 3083 3087 3091 3094 3097 3101 3103 3106 3111 3115 3118 3122 3126 3128 3129 3125 3120 3125 3107 3113 3119 3124 3128 3131 3133 3135
3022 3025 3029 3033 3041 3042 3046 3050 3058 3048 3042 3041 3043 3047 3053 3056 3061 3065 3069 3072 3077 3083 3084 3088 3094 3097 3101 3105 3109 3112 3118 3124 3130 3129 3114 3113 3116 3097 3107 3110 3116 3120 3123 3126 3127
3014 3017 3020 3027 3030 3035 3038 3043 3036 3028 3034 3033 3036 3041 3045 3052 3054 3057 3062 3065 3068 3072 3074 3079 3088 3089 3091 3096 3100 3105 3109 3109 3121 3120 3106 3109 3099 3090 3099 3105 3108 3112 3115 3117 3119
3006 3006 3010 3018 3023 3027 3031 3028 3018 3020 3025 3028 3031 3036 3039 3044 3050 3052 3055 3056 3059 3063 3072 3073 3078 3080 3084 3089 3096 3098 3101 3103 3105 3106 3105 3096 3088 3089 3093 3098 3102 3105 3108 3111 3112
2993 2997 2999 3009 3013 3017 3020 3010 3012 3017 3021 3024 3029 3031 3031 3036 3042 3044 3046 3046 3051 3057 3064 3068 3072 3072 3076 3083 3087 3089 3092 3099 3101 3106 3106 3088 3085 3084 3087 3091 3096 3098 3102 3104 3105
2983 2987 2986 2998 3004 3006 2998 2997 3005 3012 3017 3022 3025 3026 3028 3028 3034 3035 3038 3040 3043 3048 3057 3062 3065 3069 3071 3070 3073 3080 3082 3087 3090 3091 3088 3093 3079 3080 3082 3086 3089 3092 3094 3096 3098
2967 2971 2975 2987 2989 2987 2984 2988 2998 3004 3010 3013 3017 3020 3022 3025 3025 3030 3030 3035 3037 3041 3043 3052 3058 3061 3062 3064 3067 3068 3071 3076 3078 3079 3082 3081 3072 3077 3079 3081 3084 3086 3088 3090 3092
2951 2961 2964 2972 2969 2970 2975 2980 2991 2996 3001 3005 3009 3014 3015 3019 3023 3023 3025 3029 3032 3035 3037 3041 3047 3054 3058 3061 3056 3057 3061 3067 3069 3073 3070 3076 3062 3072 3077 3079 3081 3082 3083 3085 3087
2940 2942 2947 2950 2959 2964 2966 2971 2980 2987 2993 2998 3002 3006 3009 3012 3014 3016 3019 3022 3026 3029 3032 3036 3037 3037 3036 3041 3046 3048 3050 3058 3065 3067 3059 3057 3062 3068 3071 3074 3076 3077 3079 3081 3082
2918 2920 2924 2929 2935 2945 2955 2961 2970 2975 2982 2989 2994 2997 3002 3006 3008 3010 3013 3016 3020 3023 3026 3030 3028 3031 3033 3037 3039 3040 3044 3048 3048 3051 3054 3048 3054 3062 3069 3071 3072 3073 3074 3075 3076
2901 2909 2917 2926 2933 2939 2944 2946 2955 2965 2971 2975 2981 2990 2996 3000 3002 3003 3008 3011 3013 3016 3020 3021 3023 3026 3028 3031 3034 3035 3038 3038 3041 3044 3043 3044 3047 3057 3061 3065 3067 3068 3070 3071 3074
2888 2903 2913 2916 2923 2930 2930 2934 2942 2957 2964 2970 2977 2982 2988 2992 2995 2998 3002 3005 3007 3010 3013 3017 3019 3022 3023 3025 3030 3030 3023 3028 3030 3032 3035 3034 3039 3050 3054 3058 3063 3064 3064 3066 3067